SCP
0 0 0 0 0 0 0 0 0 0 0 0 0 0 0 0 0 0 0 0 0 0
0 0 0 0 0 0 0 0 0 0 0 0 0 0 0 0 0 0 0 0 0 0
0 0 0 0 0 0 0 0 0 0 0 0 0 0 0 0 0 -0 0 0 0 0
0 0 0 0 0 0 0 0 0 0 0 0 0 0 0 0 0 0 0 0 0 0
0 0 0 0 0 0 0 0 0 0 0 0 0 0 0 0 0 0 0 0 -0 -0
0 0 0 0 0 0 0 0 0 0 0 0 0 0 0 0 0 0 0 0 -0 0
0 0 0 0 0 0 0 0 0 0 0 0 0 0 0 0 0 0 0 0 -0 0
0 0 0 0 0 0 0 0 0 0 0 0 0 0 0 0 0 0 0 0 0 -0
0 0 0 0 0 0 0 0 0 0 0 0 0 0 0 0 0 0 0 0 0 0
0 0 0 0 0 0 0 0 0 0 0 0 0 0 0 -0 0 0 0 0 0 0
0 0 0 0 0 0 0 -0 0 0 0 0 0 0 0 0 0 0 0 0 0 0
0 0 0 0 -0 -0 0 0 0 0 0 0 0 0 0 0 0 0 0 0 0 0
0 0 0 0 -0 -0 -0 -0 0 -0 -0 -0 -0 0 -0 -0 0 0 0 0 0 0
0 0 0 0 0 0 -0 -0 -0 -0 -0 -0 -0 -0 -0 -0 -0 -0 0 -0 -0 -0
Wind_Speed_500mb
45 55 61 58 52 48 48 56 57 61 75 67 64 68 65 60 61 60 54 54 57 63
37 40 43 47 53 58 57 56 56 63 67 72 76 79 76 76 75 65 69 70 68 68
70 71 72 77 68 62 61 63 65 70 76 84 88 92 96 97 93 99 99 80 69 63
75 77 60 44 53 61 62 57 60 59 54 53 59 55 55 50 51 59 66 72 69 66
66 69 67 68 70 68 67 68 63 58 55 58 62 52 51 52 53 50 51 61 68 73
82 82 84 77 54 56 62 64 66 65 64 55 54 57 55 53 51 46 46 48 44 58
60 57 58 52 52 50 49 53 54 53 54 56 53 53 52 51 48 46 51 52 46 46
59 57 55 54 51 48 49 47 45 48 51 49 50 52 55 55 52 48 42 40 40 39
56 54 53 53 48 50 46 45 42 39 39 44 44 48 50 54 57 54 45 47 40 36
57 56 53 53 49 50 48 40 40 40 39 41 41 41 42 39 42 47 52 47 41 41
59 56 51 48 47 43 39 35 36 40 42 43 44 40 33 32 36 40 44 37 35 37
53 50 48 45 42 39 41 42 43 44 44 40 34 27 25 18 27 29 32 35 35 33
59 53 50 48 45 44 43 44 43 43 44 41 37 25 21 21 22 28 26 24 26 31
53 50 50 45 39 38 36 39 42 38 30 28 26 23 24 22 24 26 25 23 24 23
Wind_Direction_500mb
302 299 301 289 281 266 267 274 279 278 281 279 279 287 285 286 279 274 271 268 266 270
304 304 302 292 284 277 272 269 270 281 281 279 278 276 274 278 281 273 275 271 266 264
302 299 300 297 290 289 286 284 286 285 281 277 276 275 275 274 269 270 271 271 266 261
302 300 292 285 295 297 291 282 286 286 283 288 290 287 279 279 279 272 266 261 264 265
305 305 300 294 289 288 285 290 291 289 288 288 285 283 285 280 279 278 275 268 268 267
305 299 300 302 297 289 286 284 285 285 284 282 281 280 276 277 278 274 275 272 272 267
323 319 315 312 307 301 295 293 288 281 276 278 277 274 271 273 275 270 268 276 274 263
323 319 315 311 308 305 300 294 289 283 280 279 274 268 269 270 272 269 261 273 269 264
326 320 317 316 311 309 304 302 296 285 281 285 278 276 270 267 266 254 256 262 264 275
327 326 318 317 316 309 306 303 300 293 289 287 284 282 275 269 260 251 248 250 255 259
331 327 321 321 320 310 311 302 298 294 293 294 290 287 274 263 253 250 240 238 242 248
340 331 327 322 317 312 308 304 303 298 295 291 286 285 263 267 249 235 231 231 227 229
339 339 328 323 318 313 306 302 301 296 295 294 289 270 251 237 240 232 233 226 219 223
355 349 340 330 324 319 314 309 306 303 298 292 285 264 234 222 233 229 224 224 219 207
Wind_Speed_850mb
45 55 61 58 52 48 48 56 57 61 75 67 64 68 65 60 61 60 54 54 57 63
37 40 43 47 53 58 57 56 56 63 67 72 76 79 76 76 75 65 69 70 68 68
70 71 72 77 68 62 61 63 65 70 76 84 88 92 96 97 93 99 99 80 69 63
75 77 60 44 53 61 62 57 60 59 54 53 59 55 55 50 51 59 66 72 69 66
66 69 67 68 70 68 67 68 63 58 55 58 62 52 51 52 53 50 51 61 68 73
82 82 84 77 54 56 62 64 66 65 64 55 54 57 55 53 51 46 46 48 44 58
60 57 58 52 52 50 49 53 54 53 54 56 53 53 52 51 48 46 51 52 46 46
59 57 55 54 51 48 49 47 45 48 51 49 50 52 55 55 52 48 42 40 40 39
56 54 53 53 48 50 46 45 42 39 39 44 44 48 50 54 57 54 45 47 40 36
57 56 53 53 49 50 48 40 40 40 39 41 41 41 42 39 42 47 52 47 41 41
59 56 51 48 47 43 39 35 36 40 42 43 44 40 33 32 36 40 44 37 35 37
53 50 48 45 42 39 41 42 43 44 44 40 34 27 25 18 27 29 32 35 35 33
59 53 50 48 45 44 43 44 43 43 44 41 37 25 21 21 22 28 26 24 26 31
53 50 50 45 39 38 36 39 42 38 30 28 26 23 24 22 24 26 25 23 24 23
Wind_Direction_850mb
302 299 301 289 281 266 267 274 279 278 281 279 279 287 285 286 279 274 271 268 266 270
304 304 302 292 284 277 272 269 270 281 281 279 278 276 274 278 281 273 275 271 266 264
302 299 300 297 290 289 286 284 286 285 281 277 276 275 275 274 269 270 271 271 266 261
302 300 292 285 295 297 291 282 286 286 283 288 290 287 279 279 279 272 266 261 264 265
305 305 300 294 289 288 285 290 291 289 288 288 285 283 285 280 279 278 275 268 268 267
305 299 300 302 297 289 286 284 285 285 284 282 281 280 276 277 278 274 275 272 272 267
323 319 315 312 307 301 295 293 288 281 276 278 277 274 271 273 275 270 268 276 274 263
323 319 315 311 308 305 300 294 289 283 280 279 274 268 269 270 272 269 261 273 269 264
326 320 317 316 311 309 304 302 296 285 281 285 278 276 270 267 266 254 256 262 264 275
327 326 318 317 316 309 306 303 300 293 289 287 284 282 275 269 260 251 248 250 255 259
331 327 321 321 320 310 311 302 298 294 293 294 290 287 274 263 253 250 240 238 242 248
340 331 327 322 317 312 308 304 303 298 295 291 286 285 263 267 249 235 231 231 227 229
339 339 328 323 318 313 306 302 301 296 295 294 289 270 251 237 240 232 233 226 219 223
355 349 340 330 324 319 314 309 306 303 298 292 285 264 234 222 233 229 224 224 219 207